Montpelier, VT

4:46 PM EST on November 12, 2019 (GMT -0500)
Knapp State

Weather History for KMPV - August, 2019

Change the Weather History Date:

Sunday, August 4, 2019

  Actual Average Record
Temperature  
Mean Temperature 60 °F 67 °F  
Max Temperature 72 °F 78 °F 93 °F (1988)
Min Temperature 49 °F 55 °F 40 °F (1964)
Degree Days  
Heating Degree Days 4 1  
Month to date heating degree days 5 4  
Since 1 June heating degree days 158 165  
Since 1 July heating degree days 14 44  
Cooling Degree Days 0 3  
Month to date cooling degree days 0 12  
Year to date cooling degree days 158 180  
Since 1 June cooling degree days 157 170  
Growing Degree Days 10 (Base 50)    
Moisture  
Dew Point 53 °F    
Average Humidity 70    
Maximum Humidity 97    
Minimum Humidity 35    
Precipitation  
Precipitation T in 0.15 in 2.94 in (1989)
Month to date precipitation T 0.62  
Year to date precipitation 30.55 21.41  
Sea Level Pressure  
Sea Level Pressure 29.99 in    
Wind  
Wind Speed 3 mph ()    
Max Wind Speed 16 mph    
Max Gust Speed 20 mph    
Visibility 10.0 miles    
Events Rain    
T = Trace of Precipitation, MM = Missing Value Source: Averaged Metar Reports

Daily Weather History Graph

Daily Weather History Graph

Search for Another Location

Airport or City:

Astronomy

Aug. 04, 2019 Rise Set
Actual Time 5:40 AM EDT 8:11 PM EDT
Civil Twilight 5:08 AM EDT 8:43 PM EDT
Nautical Twilight 4:27 AM EDT 9:24 PM EDT
Astronomical Twilight 3:40 AM EDT 10:10 PM EDT
Moon 9:50 AM EDT (8/4) 10:39 PM EDT (8/4)
Length of Visible Light 15h 35m
Length of Day
14h 30m
Waxing Crescent, 18% of the Moon is Illuminated
Aug 4
Waxing Crescent
Aug 7
First Quarter
Aug 15
Full
Aug 23
Last Quarter
Aug 30
New

Hourly Weather History & Observations

Time (EDT) Temp. Dew Point Humidity Pressure Visibility Wind Dir Wind Speed Gust Speed Precip Events Conditions
12:51 AM 62.1 °F 55.9 °F 80% 29.96 in 10.0 mi Calm Calm - N/A   Clear
1:51 AM 63.0 °F 59.0 °F 87% 29.96 in 10.0 mi Calm Calm - 0.00 in   Overcast
2:51 AM 64.0 °F 59.0 °F 84% 29.96 in 10.0 mi Calm Calm - N/A   Mostly Cloudy
3:51 AM 63.0 °F 60.1 °F 90% 29.96 in 10.0 mi Calm Calm - 0.00 in Rain Light Rain
4:51 AM 61.0 °F 59.0 °F 93% 29.95 in 10.0 mi Calm Calm - 0.00 in   Scattered Clouds
5:51 AM 59.0 °F 57.9 °F 96% 29.96 in 10.0 mi Calm Calm - N/A   Clear
6:02 AM 59.0 °F 57.9 °F 96% 29.97 in 10.0 mi Calm Calm - N/A   Scattered Clouds
6:10 AM 60.1 °F 57.9 °F 93% 29.97 in 10.0 mi Calm Calm - N/A   Mostly Cloudy
6:26 AM 60.1 °F 59.0 °F 96% 29.97 in 10.0 mi Calm Calm - N/A   Overcast
6:51 AM 61.0 °F 59.0 °F 93% 29.98 in 10.0 mi Calm Calm - N/A   Overcast
7:51 AM 63.0 °F 59.0 °F 87% 29.99 in 10.0 mi NNE 3.5 mph - N/A   Overcast
8:29 AM 64.0 °F 57.0 °F 78% 30.00 in 10.0 mi Calm Calm - N/A   Scattered Clouds
8:51 AM 64.9 °F 57.9 °F 78% 30.00 in 10.0 mi WNW 3.5 mph - N/A   Mostly Cloudy
9:51 AM 66.9 °F 57.0 °F 70% 30.00 in 10.0 mi NE 5.8 mph - N/A   Mostly Cloudy
10:07 AM 68.0 °F 57.9 °F 70% 30.01 in 10.0 mi North 4.6 mph - N/A   Mostly Cloudy
10:51 AM 69.1 °F 55.0 °F 61% 30.00 in 10.0 mi NNW 8.1 mph 18.4 mph N/A   Clear
11:51 AM 70.0 °F 52.0 °F 53% 30.00 in 10.0 mi NNW 12.7 mph 19.6 mph N/A   Clear
12:51 PM 70.0 °F 50.0 °F 49% 30.00 in 10.0 mi NNW 12.7 mph - N/A   Clear
1:51 PM 71.1 °F 48.0 °F 44% 29.99 in 10.0 mi NW 12.7 mph - N/A   Clear
2:51 PM 71.1 °F 46.9 °F 42% 29.99 in 10.0 mi NNW 9.2 mph - N/A   Clear
3:51 PM 72.0 °F 45.0 °F 38% 29.98 in 10.0 mi North 11.5 mph - N/A   Clear
4:51 PM 70.0 °F 43.0 °F 38% 29.98 in 10.0 mi NW 9.2 mph - N/A   Clear
5:51 PM 71.1 °F 43.0 °F 36% 29.98 in 10.0 mi NNW 6.9 mph - N/A   Clear
6:51 PM 69.1 °F 43.0 °F 39% 29.99 in 10.0 mi NNW 9.2 mph - N/A   Clear
7:51 PM 64.9 °F 45.0 °F 48% 30.00 in 10.0 mi NNE 5.8 mph - N/A   Clear
8:51 PM 60.1 °F 46.9 °F 62% 30.02 in 10.0 mi Calm Calm - N/A   Clear
9:51 PM 55.9 °F 48.0 °F 75% 30.03 in 10.0 mi SSE 4.6 mph - N/A   Clear
10:51 PM 54.0 °F 46.9 °F 77% 30.03 in 10.0 mi South 3.5 mph - N/A   Clear
11:51 PM 51.1 °F 46.9 °F 86% 30.04 in 10.0 mi Calm Calm - N/A   Clear